Weather History for Randolph AFB, TX

Change the Weather History Date:

Thursday, December 8, 2011

  Actual Average Record
Temperature  
Mean Temperature 44 °F -  
Max Temperature 59 °F 62 °F 80 °F (1999)
Min Temperature 28 °F 42 °F 23 °F (2005)
Degree Days  
Heating Degree Days 22    
Moisture  
Dew Point 32 °F    
Average Humidity 75    
Maximum Humidity 93    
Minimum Humidity 42    
Precipitation  
Precipitation 0.00 in - - ()
Sea Level Pressure  
Sea Level Pressure 30.23 in    
Wind  
Wind Speed 3 mph (NNW)    
Max Wind Speed 10 mph    
Max Gust Speed -    
Visibility 8 miles    
Events      
Averages and records for this station are not official NWS values.
T = Trace of Precipitation, MM = Missing Value Source: NWS Daily Summary

Daily Weather History Graph

Daily Weather History Graph

Search for Another Location

Airport:

Trip Planner

Search our weather history database for the weather conditions in past years. The results will help you decide how hot, cold, wet, or windy it might be!

Date:

Astronomy

Dec. 08, 2011 Rise Set
Actual Time 7:15 AM CST 5:34 PM CST
Civil Twilight 6:49 AM CST 6:00 PM CST
Nautical Twilight 6:19 AM CST 6:30 PM CST
Astronomical Twilight 5:50 AM CST 6:59 PM CST
Moon 4:13 PM CST (12/8) 5:30 AM CST (12/8)
Length of Visible Light 11h 11m
Length of Day
10h 18m
Waxing Gibbous, 97% of the Moon is Illuminated
Dec 8
Waxing Gibbous
Dec 10
Full
Dec 17
Last Quarter
Dec 24
New
Jan 1
First Quarter

Hourly Weather History & Observations

Time (CST) Temp. Windchill Dew Point Humidity Pressure Visibility Wind Dir Wind Speed Gust Speed Precip Events Conditions
12:55 AM 32.0 °F - 28.6 °F 87% 30.31 in 10.0 mi Calm Calm - N/A   Mostly Cloudy
1:55 AM 29.7 °F 23.7 °F 27.1 °F 90% 30.30 in 10.0 mi NNW 5.8 mph - N/A   Mostly Cloudy
2:55 AM 30.2 °F 25.4 °F 26.8 °F 87% 30.28 in 10.0 mi NNW 4.6 mph - N/A   Mostly Cloudy
3:55 AM 29.8 °F 24.9 °F 27.1 °F 90% 30.27 in 10.0 mi NNW 4.6 mph - N/A   Overcast
4:55 AM 29.3 °F 25.6 °F 26.6 °F 90% 30.27 in 10.0 mi NNW 3.5 mph - N/A   Partly Cloudy
5:30 AM 30.2 °F - 26.6 °F 86% 30.26 in 6.0 mi Calm Calm - N/A   Partly Cloudy
5:32 AM 28.4 °F - 26.6 °F 93% 30.27 in 6.0 mi Calm Calm - N/A   Partly Cloudy
5:36 AM 28.4 °F 24.6 °F 26.6 °F 93% 30.26 in 6.0 mi NNW 3.5 mph - N/A   Scattered Clouds
5:55 AM 28.0 °F 22.8 °F 25.7 °F 91% 30.28 in 5.0 mi NW 4.6 mph - N/A   Scattered Clouds
5:56 AM 28.4 °F 23.3 °F 26.6 °F 93% 30.28 in 5.0 mi NW 4.6 mph - N/A   Scattered Clouds
6:48 AM 30.2 °F - 26.6 °F 86% 30.28 in 5.0 mi Calm Calm - N/A   Mostly Cloudy
6:55 AM 30.2 °F - 27.7 °F 90% 30.28 in 5.0 mi Calm Calm - N/A   Mostly Cloudy
7:55 AM 31.5 °F - 28.4 °F 88% 30.30 in 4.0 mi Calm Calm - N/A   Mostly Cloudy
8:07 AM 32.0 °F 28.7 °F 28.4 °F 87% 30.30 in 5.0 mi NNW 3.5 mph - N/A   Mostly Cloudy
8:55 AM 36.1 °F - 30.7 °F 81% 30.29 in 8.0 mi Calm Calm - N/A   Mostly Cloudy
9:55 AM 43.3 °F - 30.0 °F 59% 30.30 in 10.0 mi Calm Calm - N/A   Scattered Clouds
10:55 AM 47.5 °F - 30.4 °F 52% 30.29 in 10.0 mi South 8.1 mph - N/A   Mostly Cloudy
11:55 AM 50.5 °F - 28.8 °F 43% 30.25 in 10.0 mi SE 6.9 mph - N/A   Partly Cloudy
12:55 PM 53.2 °F - 31.5 °F 43% 30.21 in 10.0 mi South 4.6 mph - N/A   Partly Cloudy
1:55 PM 55.4 °F - 33.1 °F 43% 30.17 in 10.0 mi SE 6.9 mph - N/A   Scattered Clouds
2:55 PM 59.0 °F - 35.8 °F 42% 30.15 in 10.0 mi SSE 6.9 mph - N/A   Clear
3:55 PM 59.2 °F - 37.9 °F 45% 30.13 in 10.0 mi SSE 10.4 mph - N/A   Clear
4:55 PM 55.0 °F - 38.8 °F 54% 30.13 in 10.0 mi SSE 8.1 mph - N/A   Clear
5:55 PM 51.4 °F - 39.4 °F 63% 30.13 in 10.0 mi ESE 4.6 mph - N/A   Clear
6:55 PM 50.0 °F - 39.2 °F 66% 30.14 in 10.0 mi Calm Calm - N/A   Clear
7:55 PM 48.6 °F - 38.8 °F 69% 30.15 in 10.0 mi Calm Calm - N/A   Clear
8:55 PM 43.7 °F - 39.2 °F 84% 30.15 in 10.0 mi Calm Calm - N/A   Clear
9:55 PM 44.2 °F - 38.8 °F 81% 30.15 in 10.0 mi Calm Calm - N/A   Clear
10:55 PM 41.2 °F - 38.1 °F 89% 30.16 in 10.0 mi Calm Calm - N/A   Clear
11:55 PM 39.7 °F - 37.6 °F 92% 30.14 in 10.0 mi Calm Calm - N/A   Clear